Temperature
8 8 8 8 7 7 7 7 7 7 7 7 7 7 7 7 7 7 7 7 7 7 7 7 7 6 6 6 6 6 5 5 5 5 5 4 4 4 4 4 3 3 3
7 7 7 7 6 6 6 6 6 6 6 6 6 6 6 6 7 7 7 6 6 6 6 6 5 5 5 5 5 5 5 5 4 4 4 4 3 3 3 3 2 2 2
6 6 6 6 6 5 5 5 5 5 5 5 6 6 6 6 6 6 6 6 5 5 5 5 5 4 4 4 4 4 4 4 3 3 3 3 3 2 2 2 1 1 1
6 5 5 5 5 5 5 5 5 5 5 5 5 5 5 5 5 5 5 5 4 4 4 4 3 3 3 3 3 3 3 2 2 2 2 2 2 1 1 1 1 1 0
5 4 4 4 4 4 4 4 4 3 4 4 4 4 4 4 4 4 3 3 3 3 2 2 2 2 2 2 2 1 1 1 1 1 1 1 1 0 0 -0 -0 -0 -1
4 3 3 3 3 3 2 2 2 2 3 3 3 3 3 3 3 3 3 2 2 2 1 1 1 1 1 0 0 0 1 0 0 0 -0 -0 -1 -1 -1 -1 -2 -2 -2
3 3 2 2 2 2 1 1 1 1 2 2 2 2 2 2 2 2 2 1 1 1 1 0 0 0 -0 -0 -0 -0 -0 -1 -1 -1 -1 -2 -2 -2 -3 -3 -3 -3 -3
2 2 2 1 1 1 0 1 1 1 1 1 1 1 1 1 1 1 1 1 1 0 0 -0 -0 -1 -1 -1 -1 -1 -1 -2 -2 -2 -3 -3 -3 -4 -4 -4 -4 -4 -4
2 2 1 1 1 0 0 0 0 1 1 1 1 1 1 1 1 1 0 0 0 -0 -0 -1 -1 -1 -2 -2 -2 -2 -3 -3 -3 -4 -4 -4 -4 -5 -5 -5 -5 -5 -5
2 2 1 1 1 1 1 0 0 1 1 0 0 0 0 0 0 0 0 -0 -0 -1 -1 -2 -2 -2 -3 -3 -3 -3 -4 -4 -4 -4 -5 -5 -5 -5 -5 -6 -6 -6 -6
2 2 1 1 1 1 1 1 1 0 0 0 0 0 0 -0 -0 -0 -0 -1 -1 -1 -2 -2 -3 -3 -3 -4 -4 -4 -5 -5 -5 -5 -5 -5 -6 -6 -6 -6 -6 -6 -6
3 2 2 1 1 1 1 1 0 0 0 0 0 -0 -0 -0 -0 -1 -1 -1 -1 -2 -2 -3 -3 -4 -4 -4 -5 -5 -5 -5 -6 -6 -6 -6 -6 -6 -6 -6 -7 -7 -7
3 2 2 2 1 1 1 1 0 0 0 0 0 -0 -0 -0 -1 -1 -1 -2 -2 -2 -3 -3 -4 -4 -4 -5 -5 -5 -5 -6 -6 -6 -6 -6 -6 -6 -7 -7 -7 -7 -7
3 3 2 2 2 1 1 1 0 0 0 0 0 -0 -0 -0 -1 -1 -1 -2 -2 -3 -3 -3 -4 -4 -5 -5 -5 -5 -6 -6 -6 -6 -6 -7 -7 -7 -7 -7 -7 -7 -6
3 3 2 2 2 1 1 1 1 0 0 -0 -0 -0 -0 -0 -1 -1 -1 -2 -2 -2 -3 -3 -4 -4 -5 -5 -5 -6 -6 -6 -6 -7 -7 -7 -7 -7 -7 -7 -7 -7 -7
3 3 2 2 2 1 1 1 1 0 0 -0 -0 -0 -0 -1 -1 -1 -2 -2 -2 -3 -3 -3 -4 -4 -5 -5 -5 -6 -6 -6 -7 -7 -7 -7 -7 -7 -7 -7 -8 -8 -7
3 3 2 2 2 1 1 1 1 0 0 -0 -0 -0 -1 -1 -1 -1 -2 -2 -3 -3 -3 -4 -4 -4 -5 -5 -5 -6 -6 -6 -7 -7 -7 -7 -7 -7 -8 -8 -8 -8 -8
3 2 2 2 1 1 1 1 0 0 0 -0 -0 -1 -1 -1 -1 -2 -2 -2 -3 -3 -3 -4 -4 -4 -5 -5 -5 -6 -6 -6 -7 -7 -7 -7 -8 -8 -8 -8 -8 -8 -8
2 2 2 1 1 1 0 0 -0 -0 -0 -0 -1 -1 -1 -1 -2 -2 -2 -2 -3 -3 -4 -4 -4 -4 -5 -5 -5 -6 -6 -6 -7 -7 -7 -8 -8 -8 -8 -8 -8 -8 -9
2 2 1 1 1 0 0 0 -0 -0 -0 -0 -1 -1 -1 -2 -2 -2 -2 -3 -3 -3 -3 -4 -4 -4 -5 -5 -5 -6 -6 -6 -7 -7 -7 -8 -8 -8 -8 -8 -9 -9 -9
1 1 1 1 1 0 0 -0 -0 -0 -1 -1 -1 -2 -2 -2 -2 -2 -3 -3 -3 -3 -4 -4 -4 -4 -5 -5 -5 -6 -6 -6 -7 -7 -7 -8 -8 -8 -8 -9 -9 -9 -9
1 1 0 0 0 0 0 -0 -1 -1 -1 -1 -2 -2 -3 -3 -2 -3 -3 -3 -3 -4 -4 -4 -4 -4 -5 -5 -6 -6 -6 -6 -7 -7 -8 -8 -8 -8 -8 -9 -9 -9 -9
0 0 -0 -0 -0 -0 -1 -1 -1 -1 -1 -1 -2 -2 -3 -3 -3 -3 -3 -3 -4 -4 -4 -4 -4 -4 -5 -5 -6 -6 -6 -7 -7 -7 -8 -8 -8 -8 -9 -9 -9 -9 -9
-0 -0 -0 -1 -1 -1 -1 -1 -1 -2 -2 -2 -2 -3 -3 -3 -4 -4 -4 -4 -4 -4 -4 -4 -5 -5 -5 -5 -6 -6 -7 -7 -7 -8 -8 -8 -8 -8 -9 -9 -9 -9 -9
-1 -1 -1 -1 -1 -1 -2 -2 -2 -2 -2 -2 -3 -3 -3 -4 -4 -4 -4 -4 -4 -4 -4 -5 -5 -5 -5 -6 -6 -6 -7 -7 -8 -8 -8 -8 -9 -9 -9 -9 -9 -9 -9
-1 -1 -2 -2 -2 -2 -3 -3 -3 -3 -3 -3 -3 -4 -4 -4 -4 -5 -5 -4 -4 -4 -5 -5 -5 -5 -6 -6 -6 -6 -7 -7 -8 -8 -9 -9 -9 -9 -9 -10 -9 -10 -10
Wind_Speed
4 4 5 4 4 5 5 5 5 5 5 6 6 6 7 7 7 7 7 7 7 7 7 7 7 6 5 5 4 3 3 1 1 1 2 2 3 3 4 5 5 3 2
4 5 5 4 5 5 5 5 5 6 5 6 6 7 7 8 8 8 8 8 8 8 8 8 7 6 7 6 5 5 3 3 1 0 1 2 3 3 3 3 5 5 4
5 5 5 4 5 5 5 5 5 5 6 6 7 7 7 8 8 8 8 9 9 9 8 8 7 7 8 6 6 5 4 4 3 2 2 2 2 3 3 3 4 4 4
5 5 4 4 4 4 4 5 5 5 6 6 7 7 7 8 8 8 8 9 9 9 9 8 8 7 6 6 6 5 5 5 4 3 2 2 2 2 3 3 3 3 3
5 5 4 4 4 4 4 5 5 6 6 6 6 7 6 6 7 7 7 8 8 9 8 8 8 9 9 7 6 5 5 4 4 3 3 2 2 3 2 2 2 2 2
5 5 5 5 4 4 4 5 6 6 6 6 7 7 7 7 11 11 9 7 7 7 7 7 7 9 11 12 12 10 8 5 4 3 2 2 2 2 2 2 2 2 2
6 5 5 5 5 4 5 5 5 5 6 6 6 6 7 8 12 12 12 7 7 6 6 6 5 6 8 6 9 11 11 11 8 3 2 2 1 1 1 1 1 0 2
6 6 5 5 5 5 5 5 5 4 5 5 5 5 5 7 10 10 11 7 6 6 5 5 4 4 4 5 5 6 6 6 6 4 2 0 1 1 1 1 1 1 3
7 6 6 6 6 6 5 5 4 4 4 4 4 4 4 4 7 8 8 4 4 4 4 4 3 3 5 6 5 4 4 4 6 6 5 4 5 4 1 2 1 1 3
7 6 6 6 6 6 6 4 3 4 4 3 3 3 3 3 3 5 6 3 3 2 3 4 5 4 5 4 3 2 2 2 2 3 5 6 6 6 4 1 3 2 2
7 6 6 6 6 6 5 4 4 4 3 2 1 1 1 2 3 2 4 3 2 1 1 2 3 6 5 5 3 1 2 0 1 1 2 3 3 3 3 2 1 4 4
7 7 6 6 5 5 5 5 4 4 3 2 1 2 2 2 3 3 1 1 2 2 1 2 3 6 5 5 3 3 3 3 1 1 2 2 2 3 3 4 4 5 7
8 7 6 6 5 5 6 6 4 4 3 3 3 3 3 2 3 4 3 2 1 2 2 4 4 5 4 3 4 4 3 1 1 1 2 2 2 3 3 4 4 5 8
8 8 7 7 6 5 5 5 5 5 5 5 4 4 4 3 3 3 2 2 3 2 2 3 4 4 3 3 3 3 2 2 2 2 3 3 3 2 3 2 3 3 4
9 8 7 7 7 6 6 6 6 6 6 6 5 5 4 4 5 7 4 4 4 4 2 1 0 1 2 2 2 2 2 2 2 2 3 3 4 3 3 3 3 3 4
9 9 8 7 6 6 5 5 9 9 11 12 10 7 6 7 6 6 7 7 7 6 2 2 2 3 3 3 3 3 3 3 3 3 3 3 4 4 5 4 4 5 6
11 9 8 8 7 7 6 6 6 7 10 11 12 12 10 9 9 8 7 7 7 6 3 3 4 4 4 4 4 4 4 4 3 4 4 5 5 5 5 5 5 5 7
11 11 10 8 8 8 8 7 6 5 5 5 8 11 12 11 10 9 8 6 4 3 3 4 5 5 5 5 5 5 5 4 4 4 5 5 5 5 5 6 6 7 7
11 9 8 8 8 8 7 7 7 7 6 5 4 5 9 10 10 10 8 4 5 5 5 5 5 5 5 5 5 5 5 5 5 5 5 6 6 5 6 7 7 11 10
9 12 10 8 8 8 7 7 7 7 7 6 7 6 4 5 4 5 5 5 5 6 6 6 6 6 6 6 5 5 5 6 6 6 6 6 6 6 8 9 8 8 9
7 8 13 9 8 8 8 9 8 8 8 7 7 7 9 6 6 7 6 6 7 7 6 6 6 6 6 5 5 6 7 7 7 7 7 7 6 7 7 8 9 9 10
6 6 7 8 7 8 8 8 8 8 8 8 6 6 11 7 6 6 6 7 7 6 6 6 6 6 6 6 6 6 7 8 7 7 7 7 7 8 8 9 9 9 10
5 6 6 7 7 9 9 7 7 8 7 7 6 6 6 6 7 7 7 6 6 6 6 6 6 6 8 10 10 8 8 9 8 7 8 8 8 8 9 10 11 12 12
4 6 6 6 6 7 7 7 7 7 7 7 7 7 7 7 7 7 7 6 5 5 7 7 7 9 11 11 12 13 14 15 14 12 11 10 10 10 10 11 12 13 13
4 5 5 6 6 6 6 7 7 7 7 7 7 6 6 6 6 6 6 5 6 6 7 9 9 10 12 14 14 15 16 18 18 16 14 11 12 13 13 13 13 14 15
4 5 5 5 5 6 6 6 6 7 7 7 6 6 6 6 6 6 6 5 6 6 7 8 11 13 14 14 16 17 18 19 20 20 17 11 12 13 13 13 15 16 16
Wind_Direction
93 85 78 63 55 56 53 42 35 33 32 34 33 37 37 33 32 45 47 45 57 53 49 58 53 44 48 40 39 38 32 17 268 57 48 11 5 6 16 34 38 26 0
111 99 88 74 66 61 55 46 47 48 42 43 46 51 50 47 45 52 57 55 60 58 53 57 51 51 51 43 47 46 38 28 58 50 33 22 24 18 22 33 45 45 34
119 109 95 82 76 70 64 59 58 58 54 52 57 60 57 56 57 59 66 67 66 63 59 60 54 57 56 47 48 45 34 34 41 80 50 34 32 29 34 37 44 35 32
128 121 112 101 95 89 80 73 68 65 63 61 65 69 69 66 64 66 71 72 70 64 60 60 58 61 65 58 51 42 42 46 48 64 61 43 35 23 40 36 33 28 16
138 134 130 121 112 101 92 83 76 72 70 66 67 66 71 74 71 71 70 74 73 69 58 52 54 61 68 72 68 54 53 53 51 53 51 43 30 23 26 18 25 7 9
149 148 142 134 125 116 107 99 91 81 72 68 64 62 62 70 78 81 81 71 69 67 59 47 48 49 53 57 60 58 59 61 55 51 41 42 21 14 16 25 26 18 341
155 152 151 146 137 128 120 107 96 88 80 70 62 60 63 73 80 83 84 79 73 65 58 49 48 47 53 47 51 50 45 51 61 89 72 45 11 351 34 25 20 322 271
159 158 156 150 141 133 125 115 105 97 87 76 65 58 60 72 84 87 89 80 73 62 57 57 53 28 51 68 59 47 35 33 47 61 88 353 273 256 205 185 222 304 292
165 165 161 156 150 144 135 126 115 107 95 85 76 66 59 55 83 93 94 80 68 51 36 37 44 18 32 57 68 48 27 7 23 35 31 17 1 346 328 119 73 15 316
171 166 160 157 155 152 146 132 119 119 118 110 92 69 52 16 59 99 107 99 78 47 23 11 13 12 17 44 96 67 6 330 348 1 6 5 6 3 17 107 169 174 233
159 158 158 157 157 154 146 137 136 132 131 131 121 25 346 336 0 48 123 137 136 101 28 350 334 349 355 359 28 182 284 295 95 357 341 342 352 1 10 9 184 175 193
157 161 163 162 164 163 156 155 155 155 164 186 223 268 273 293 313 309 297 171 162 163 243 272 294 326 342 348 354 325 350 65 73 345 331 327 328 320 314 315 297 255 234
166 172 174 173 175 171 172 174 174 179 190 209 220 244 259 257 280 290 295 299 282 193 238 279 307 330 349 350 332 342 26 47 330 300 296 286 269 265 281 298 295 282 271
178 182 183 185 186 184 187 189 189 193 202 213 219 233 245 253 255 255 262 288 292 287 281 299 320 337 351 332 335 355 352 280 267 259 270 272 275 273 280 285 294 308 303
187 189 191 195 195 196 200 206 205 208 203 206 214 214 216 238 244 232 220 222 222 237 235 191 272 310 313 309 302 296 292 300 301 277 272 281 285 283 282 278 271 279 274
194 197 198 198 199 200 203 223 234 226 234 234 225 216 224 234 248 249 251 257 261 260 230 196 244 253 260 268 275 280 275 269 263 259 265 266 274 278 280 274 263 264 271
201 199 198 199 201 202 203 210 227 235 238 239 236 234 233 237 245 250 255 258 260 260 224 224 240 247 251 254 253 250 253 256 252 254 256 258 261 266 269 272 270 268 269
205 204 201 202 201 202 205 209 210 214 226 239 240 240 241 241 242 246 248 250 254 241 216 231 239 242 244 246 248 249 254 260 254 252 253 254 252 257 264 264 263 263 270
206 206 204 201 200 202 203 204 209 216 223 227 226 243 241 241 243 244 239 216 223 235 235 235 236 238 240 242 245 246 247 253 255 252 253 253 251 251 259 261 264 272 274
211 211 202 200 200 202 203 207 211 216 221 224 227 226 209 209 220 230 223 213 224 235 236 237 238 238 238 240 242 243 247 251 253 250 252 253 250 247 256 262 264 266 266
209 211 208 206 207 206 205 210 212 213 218 223 228 223 211 208 219 222 223 224 228 234 235 236 238 238 237 237 238 241 245 251 250 249 252 252 249 252 254 257 260 262 265
205 206 205 209 210 211 213 211 210 212 217 222 227 229 232 222 218 224 227 230 228 228 226 228 235 235 233 232 234 237 244 250 250 247 248 249 249 253 256 257 259 261 263
206 208 211 214 213 219 220 214 212 214 217 217 219 219 222 223 226 228 231 231 229 228 229 229 236 243 244 241 236 231 240 247 247 242 247 254 254 255 255 256 258 261 262
215 216 218 219 216 217 217 216 214 216 216 217 219 222 222 224 229 231 230 228 229 232 236 235 238 243 248 251 248 243 243 249 251 249 244 249 254 257 257 258 260 260 262
222 226 227 224 221 221 222 220 217 217 218 219 220 223 226 227 230 232 230 229 233 238 241 242 245 249 253 254 255 255 258 262 262 256 249 248 251 252 255 258 261 263 263
232 233 232 228 226 224 223 224 223 221 222 222 220 221 225 229 232 233 233 232 236 241 246 248 248 251 256 261 264 266 270 273 273 273 269 263 260 261 260 263 264 264 267
Height
1501 1500 1500 1500 1499 1499 1499 1498 1498 1497 1497 1496 1495 1495 1494 1494 1493 1492 1492 1491 1491 1491 1490 1490 1490 1490 1490 1489 1489 1489 1489 1488 1487 1487 1486 1486 1485 1484 1484 1483 1483 1484 1485
1497 1497 1497 1496 1496 1496 1495 1495 1494 1494 1493 1493 1492 1492 1491 1490 1490 1489 1489 1488 1488 1487 1487 1487 1487 1486 1486 1486 1485 1485 1485 1484 1484 1483 1482 1482 1481 1480 1480 1480 1480 1481 1482
1494 1493 1493 1493 1493 1493 1492 1492 1491 1491 1490 1490 1489 1489 1488 1488 1487 1486 1486 1485 1485 1485 1484 1484 1484 1483 1483 1483 1482 1482 1481 1481 1480 1480 1479 1478 1478 1477 1477 1477 1477 1478 1479
1490 1490 1490 1490 1489 1489 1489 1489 1488 1488 1488 1487 1487 1486 1486 1485 1485 1484 1483 1483 1483 1482 1482 1482 1482 1481 1481 1480 1480 1479 1479 1478 1478 1477 1476 1476 1475 1475 1475 1475 1475 1475 1476
1487 1487 1486 1486 1486 1486 1486 1486 1486 1486 1485 1485 1485 1484 1484 1484 1483 1483 1482 1482 1481 1481 1481 1481 1480 1480 1479 1479 1479 1478 1478 1477 1476 1475 1475 1474 1473 1473 1473 1472 1472 1472 1472
1483 1483 1483 1483 1484 1484 1484 1484 1484 1484 1484 1483 1483 1483 1483 1483 1482 1482 1482 1481 1481 1480 1480 1480 1479 1479 1478 1478 1477 1476 1476 1475 1474 1473 1473 1472 1471 1471 1470 1470 1469 1469 1469
1480 1480 1481 1481 1481 1482 1482 1482 1483 1483 1483 1483 1483 1483 1482 1482 1482 1482 1481 1481 1480 1480 1479 1479 1478 1478 1477 1476 1475 1474 1474 1472 1472 1472 1471 1470 1469 1468 1468 1467 1466 1466 1465
1478 1478 1478 1479 1479 1480 1481 1481 1482 1482 1482 1483 1483 1482 1482 1482 1482 1482 1481 1481 1480 1479 1478 1477 1477 1476 1475 1474 1473 1472 1471 1470 1469 1469 1468 1468 1467 1466 1465 1465 1464 1463 1462
1475 1476 1476 1477 1478 1479 1480 1481 1481 1482 1482 1482 1482 1482 1482 1482 1482 1481 1481 1480 1479 1478 1477 1476 1475 1474 1473 1472 1471 1470 1469 1468 1467 1466 1466 1465 1464 1463 1462 1462 1461 1460 1459
1473 1474 1475 1476 1477 1478 1479 1480 1480 1481 1482 1482 1482 1482 1482 1481 1481 1480 1480 1479 1478 1476 1475 1474 1473 1472 1471 1470 1469 1468 1467 1466 1465 1464 1464 1463 1462 1461 1460 1460 1459 1458 1457
1472 1472 1473 1475 1476 1477 1478 1479 1480 1480 1481 1481 1481 1481 1481 1480 1480 1479 1478 1477 1476 1475 1473 1472 1471 1470 1469 1468 1467 1466 1465 1464 1463 1462 1461 1460 1460 1459 1458 1457 1456 1455 1454
1470 1471 1472 1473 1475 1476 1477 1478 1478 1479 1479 1480 1480 1480 1480 1479 1478 1477 1476 1475 1474 1473 1471 1470 1469 1468 1467 1466 1465 1464 1463 1462 1461 1460 1459 1458 1457 1456 1455 1454 1453 1452 1451
1468 1469 1471 1472 1473 1474 1475 1476 1477 1477 1478 1478 1478 1478 1478 1477 1476 1475 1474 1473 1471 1470 1469 1468 1467 1465 1464 1463 1462 1461 1460 1459 1458 1457 1456 1455 1454 1453 1452 1451 1450 1448 1447
1466 1467 1469 1470 1471 1472 1473 1474 1475 1475 1476 1476 1476 1476 1475 1475 1474 1473 1471 1470 1469 1468 1466 1465 1464 1463 1462 1461 1460 1459 1458 1456 1455 1454 1453 1452 1451 1450 1448 1447 1446 1444 1443
1463 1464 1466 1467 1468 1469 1470 1471 1472 1473 1473 1473 1473 1473 1472 1472 1471 1470 1469 1467 1466 1465 1463 1462 1461 1460 1459 1458 1457 1455 1454 1453 1452 1451 1449 1448 1447 1446 1444 1443 1441 1439 1437
1459 1460 1462 1463 1465 1466 1467 1468 1468 1469 1470 1469 1469 1469 1469 1468 1467 1466 1465 1464 1463 1461 1460 1459 1458 1457 1455 1454 1453 1452 1451 1450 1448 1447 1446 1444 1442 1441 1439 1438 1436 1434 1432
1454 1456 1458 1459 1460 1462 1463 1464 1465 1466 1466 1466 1466 1465 1465 1464 1464 1463 1461 1460 1459 1458 1457 1455 1454 1453 1452 1451 1449 1448 1447 1446 1444 1443 1441 1440 1438 1436 1434 1432 1431 1429 1426
1449 1451 1453 1454 1456 1457 1458 1459 1460 1461 1461 1461 1461 1461 1461 1460 1459 1458 1458 1456 1455 1454 1453 1452 1450 1449 1448 1446 1445 1444 1442 1441 1440 1438 1436 1435 1433 1431 1429 1427 1425 1423 1420
1444 1445 1447 1448 1450 1451 1453 1454 1454 1455 1455 1456 1456 1456 1456 1455 1455 1454 1453 1452 1451 1450 1449 1447 1446 1445 1443 1442 1440 1439 1437 1436 1434 1433 1431 1429 1427 1425 1423 1421 1419 1416 1414
1438 1439 1441 1442 1444 1445 1446 1447 1448 1449 1449 1450 1450 1451 1451 1450 1449 1449 1448 1447 1446 1445 1444 1443 1442 1440 1439 1437 1435 1434 1432 1430 1429 1427 1425 1423 1421 1419 1417 1414 1412 1410 1407
1432 1433 1434 1435 1436 1438 1439 1440 1441 1442 1443 1443 1444 1445 1445 1444 1444 1444 1443 1442 1441 1440 1439 1438 1436 1435 1434 1432 1430 1428 1426 1424 1423 1421 1419 1417 1415 1412 1410 1407 1405 1403 1400
1426 1427 1428 1429 1430 1431 1432 1433 1435 1435 1436 1437 1437 1438 1438 1438 1438 1438 1437 1437 1436 1435 1434 1432 1431 1430 1428 1426 1424 1422 1420 1418 1416 1414 1412 1410 1407 1405 1403 1400 1397 1395 1392
1421 1421 1422 1423 1423 1424 1425 1426 1427 1428 1429 1430 1430 1431 1431 1431 1431 1432 1431 1431 1430 1429 1428 1426 1425 1424 1422 1420 1418 1416 1413 1411 1409 1407 1404 1402 1400 1397 1395 1392 1389 1387 1384
1416 1416 1416 1417 1417 1418 1418 1419 1420 1421 1421 1422 1423 1424 1424 1425 1425 1425 1425 1425 1424 1423 1422 1420 1419 1417 1415 1413 1411 1409 1406 1404 1402 1400 1397 1394 1392 1389 1387 1384 1381 1378 1376
1410 1410 1411 1411 1411 1411 1412 1412 1413 1414 1414 1415 1416 1417 1418 1418 1419 1419 1419 1419 1418 1417 1416 1414 1412 1411 1409 1407 1404 1402 1399 1397 1394 1392 1389 1386 1383 1381 1378 1375 1372 1369 1367
1406 1405 1405 1405 1405 1405 1405 1406 1406 1407 1408 1409 1410 1411 1412 1412 1413 1413 1413 1412 1412 1410 1409 1408 1406 1404 1402 1399 1397 1394 1392 1389 1387 1385 1382 1379 1376 1373 1370 1367 1363 1360 1357